GW1476 Weather Reports


time (UTC)temp
C
wind
direction
speed
KPH
gust
KPH
rain 1hr
cm
rain 24hr
cm
rain mn
cm
humidity
%
barometer
mb
20260831045111 22 203 0.0 0.0 0.00 0.00 0.00 99 1022.3
20260831044519 22 203 0.0 0.0 0.00 0.00 0.00 99 1022.3
20260831042732 22 203 0.0 0.0 0.00 0.00 0.00 99 1022.3
20260831042110 22 203 0.0 0.0 0.00 0.00 0.00 99 1022.3
20260831041516 22 203 0.0 0.0 0.00 0.00 0.00 99 1022.3
20260831040912 22 180 0.0 0.0 0.00 0.00 0.00 99 1022.3
20260831035738 22 203 0.0 0.0 0.00 0.00 0.03 99 1022.3
20260831035107 22 180 0.0 0.0 0.00 0.00 0.03 99 1022.3
20260831034519 22 203 0.0 0.0 0.00 0.00 0.03 99 1022.3
20260831033929 22 203 0.0 0.0 0.00 0.00 0.03 99 1022.3
20260831033344 22 203 0.0 0.0 0.00 0.00 0.03 99 1022.3
20260831032730 22 203 0.0 0.0 0.00 0.00 0.03 99 1022.6
20260831032131 22 203 0.0 0.0 0.00 0.00 0.03 99 1022.3
20260831031519 22 225 0.0 0.0 0.00 0.00 0.03 99 1022.3
20260831030941 22 225 0.0 1.6 0.00 0.00 0.03 99 1022.3
20260831030318 22 225 0.0 0.0 0.00 0.00 0.03 99 1022.3
20260831025140 22 203 0.0 0.0 0.00 0.00 0.03 99 1022.6
20260831024541 22 225 0.0 0.0 0.00 0.00 0.03 99 1022.3
20260831023934 22 203 0.0 3.2 0.00 0.00 0.03 99 1022.3
20260831023310 22 203 0.0 0.0 0.00 0.00 0.03 99 1022.3
20260831022713 22 203 3.2 3.2 0.00 0.00 0.03 99 1022.3
20260831021538 22 225 0.0 0.0 0.00 0.00 0.03 99 1022.3
20260831020925 22 203 0.0 3.2 0.00 0.00 0.03 99 1022.3
20260831020343 22 203 0.0 3.2 0.00 0.00 0.03 99 1022.3
20260831015731 22 203 1.6 3.2 0.00 0.00 0.03 99 1022.3
20260831015108 23 180 0.0 0.0 0.00 0.00 0.03 99 1022.3
20260831014532 23 203 0.0 0.0 0.00 0.00 0.03 99 1022.3
20260831013317 23 180 0.0 0.0 0.00 0.00 0.03 99 1022.3
20260831012712 23 180 0.0 0.0 0.00 0.00 0.03 99 1022.0
20260831012134 23 225 3.2 3.2 0.00 0.00 0.03 99 1022.0
20260831011513 23 180 3.2 3.2 0.00 0.00 0.03 99 1022.0
20260831010947 23 203 0.0 3.2 0.00 0.00 0.03 99 1022.0
20260831005714 23 203 1.6 6.4 0.00 0.00 0.03 99 1021.6
20260831005124 23 158 3.2 3.2 0.00 0.00 0.03 99 1022.0
20260831004536 23 180 3.2 3.2 0.00 0.00 0.03 99 1021.6
20260831003948 24 203 1.6 4.8 0.00 0.00 0.03 99 1021.6
20260831003307 24 180 3.2 4.8 0.00 0.00 0.03 99 1021.6
20260831002133 25 225 1.6 3.2 0.00 0.00 0.03 99 1021.3
20260831001541 25 180 1.6 1.6 0.00 0.00 0.03 99 1021.3
20260831000949 25 203 0.0 3.2 0.00 0.00 0.03 99 1021.3
20260831000313 25 180 1.6 3.2 0.00 0.00 0.03 99 1020.9
20260830235711 25 158 3.2 3.2 0.00 0.00 0.03 99 1020.9
20260830235118 26 203 1.6 3.2 0.00 0.00 0.03 99 1020.9
20260830234533 26 203 1.6 1.6 0.00 0.00 0.03 99 1020.9
20260830233948 26 203 3.2 3.2 0.00 0.00 0.03 99 1020.9
20260830233325 26 203 4.8 4.8 0.00 0.00 0.03 99 1020.9
20260830232720 26 203 3.2 3.2 0.00 0.00 0.03 98 1020.9
20260830232140 26 203 4.8 4.8 0.00 0.00 0.03 97 1020.9
20260830230919 27 180 1.6 3.2 0.00 0.00 0.03 96 1020.9
20260830225747 27 135 3.2 6.4 0.00 0.00 0.03 97 1020.9
20260830225112 27 203 3.2 4.8 0.00 0.00 0.03 98 1020.9
20260830224549 27 180 3.2 4.8 0.00 0.00 0.03 96 1020.9
20260830223926 28 203 3.2 4.8 0.00 0.00 0.03 94 1020.9
20260830223313 28 180 3.2 6.4 0.00 0.00 0.03 93 1020.9
20260830222734 28 203 3.2 4.8 0.00 0.00 0.03 91 1020.9
20260830222139 29 158 4.8 4.8 0.00 0.00 0.03 89 1020.9
20260830221521 30 203 4.8 4.8 0.00 0.00 0.03 88 1020.9
20260830220940 30 203 6.4 6.4 0.00 0.00 0.03 86 1020.9
20260830220335 30 180 3.2 6.4 0.00 0.00 0.03 86 1020.9
20260830215123 30 180 4.8 6.4 0.00 0.00 0.03 84 1020.9
20260830214549 30 180 6.4 6.4 0.00 0.00 0.03 86 1021.3
20260830213940 30 203 3.2 6.4 0.00 0.00 0.03 84 1021.3
20260830213322 30 203 3.2 6.4 0.00 0.00 0.03 85 1020.9
20260830212747 30 203 4.8 6.4 0.00 0.00 0.03 85 1021.3
20260830211511 29 203 6.4 6.4 0.00 0.00 0.03 87 1021.3
20260830210931 29 203 4.8 6.4 0.00 0.00 0.03 85 1020.9
20260830210342 29 225 6.4 8.0 0.00 0.00 0.03 85 1020.9
20260830205743 29 158 4.8 6.4 0.00 0.00 0.03 85 1020.9
20260830205138 29 203 6.4 6.4 0.00 0.00 0.03 86 1020.9
20260830204535 28 180 4.8 4.8 0.00 0.00 0.03 91 1021.3
20260830203340 29 270 0.0 1.6 0.00 0.00 0.03 86 1021.3
20260830202715 30 45 3.2 3.2 0.00 0.00 0.03 83 1021.3
20260830202137 30 315 0.0 3.2 0.00 0.00 0.03 86 1021.3
20260830201525 30 225 3.2 3.2 0.00 0.00 0.03 87 1021.3
20260830200319 30 203 4.8 4.8 0.00 0.00 0.03 84 1021.6
20260830195731 30 68 0.0 0.0 0.00 0.00 0.03 85 1021.6
20260830195138 30 203 3.2 3.2 0.00 0.00 0.03 83 1021.6
20260830194541 30 203 4.8 4.8 0.00 0.00 0.03 83 1021.6
20260830193943 31 203 4.8 6.4 0.00 0.00 0.03 80 1022.0
20260830192723 32 203 4.8 4.8 0.00 0.00 0.03 75 1022.0
20260830192122 33 180 3.2 3.2 0.00 0.00 0.03 71 1022.3
20260830190935 31 203 4.8 8.0 0.00 0.00 0.03 77 1022.3
20260830190313 30 225 3.2 9.7 0.00 0.00 0.03 81 1022.3
20260830185707 31 180 9.7 11.3 0.00 0.00 0.03 78 1022.3
20260830185132 32 180 4.8 6.4 0.00 0.00 0.03 74 1022.3
20260830184508 33 23 6.4 8.0 0.00 0.00 0.03 73 1022.3
20260830183934 34 23 9.7 12.9 0.00 0.00 0.03 67 1022.6
20260830182726 33 270 4.8 8.0 0.00 0.00 0.03 68 1022.6
20260830182136 32 225 3.2 3.2 0.00 0.00 0.03 75 1023.0
20260830181538 31 203 3.2 3.2 0.00 0.00 0.03 79 1023.0
20260830180945 33 180 3.2 4.8 0.00 0.00 0.03 72 1023.0
20260830180306 32 225 3.2 3.2 0.00 0.00 0.03 72 1023.3
20260830175715 32 180 4.8 6.4 0.00 0.00 0.03 72 1023.3
20260830175110 31 248 0.0 4.8 0.00 0.00 0.03 75 1023.3
20260830174518 32 270 0.0 0.0 0.00 0.00 0.03 72 1023.3
20260830173949 32 270 1.6 3.2 0.00 0.00 0.03 73 1023.7
20260830172729 31 0 8.0 9.7 0.00 0.00 0.03 73 1023.7
20260830172120 31 338 9.7 11.3 0.00 0.00 0.03 71 1023.7
20260830171536 32 338 4.8 6.4 0.00 0.00 0.03 71 1023.7
20260830170928 33 203 4.8 8.0 0.00 0.00 0.03 69 1023.7
20260830165114 32 113 3.2 6.4 0.00 0.00 0.03 73 1024.0
20260830164532 33 293 3.2 6.4 0.00 0.00 0.03 71 1024.0
20260830163936 32 225 3.2 8.0 0.00 0.00 0.03 72 1024.0
20260830163343 32 23 8.0 8.0 0.00 0.00 0.03 72 1024.0
20260830162709 32 203 6.4 8.0 0.00 0.00 0.03 73 1024.0
20260830162131 32 293 9.7 9.7 0.00 0.00 0.03 72 1024.3
20260830161529 31 338 3.2 4.8 0.00 0.00 0.03 74 1024.3
20260830160925 32 180 6.4 6.4 0.00 0.00 0.03 74 1024.3
20260830160320 32 270 3.2 6.4 0.00 0.00 0.03 74 1024.3
20260830155737 32 23 3.2 6.4 0.00 0.00 0.03 75 1024.3
20260830155150 32 270 4.8 6.4 0.00 0.00 0.03 74 1024.3
20260830154519 31 158 1.6 1.6 0.00 0.00 0.03 75 1024.3
20260830153924 32 270 4.8 4.8 0.00 0.00 0.03 74 1024.3
20260830153326 31 315 3.2 6.4 0.00 0.00 0.03 75 1024.3
20260830152727 31 113 3.2 6.4 0.00 0.00 0.03 75 1024.3
20260830152108 31 225 3.2 4.8 0.00 0.00 0.03 74 1024.3
20260830150945 30 203 4.8 4.8 0.00 0.00 0.03 80 1024.3
20260830150326 28 158 3.2 4.8 0.00 0.00 0.03 83 1024.3
20260830145718 29 203 4.8 4.8 0.00 0.00 0.03 81 1024.3
20260830145109 29 225 3.2 6.4 0.00 0.00 0.03 80 1024.3
20260830144516 30 158 1.6 1.6 0.00 0.00 0.03 78 1024.0
20260830143941 30 338 4.8 8.0 0.00 0.00 0.03 77 1024.3
20260830143345 30 158 6.4 6.4 0.00 0.00 0.03 80 1024.0
20260830142747 29 203 4.8 4.8 0.00 0.00 0.03 82 1024.0
20260830141510 28 180 3.2 3.2 0.00 0.00 0.03 82 1024.0
20260830140923 28 270 3.2 6.4 0.00 0.00 0.03 83 1024.0
20260830140309 27 180 0.0 1.6 0.00 0.00 0.03 87 1024.0
20260830135728 27 180 0.0 1.6 0.00 0.00 0.03 90 1024.0
20260830135109 26 203 1.6 3.2 0.00 0.00 0.00 91 1024.0
20260830134546 26 225 0.0 0.0 0.00 0.00 0.00 93 1024.0
20260830133914 25 203 0.0 0.0 0.00 0.00 0.00 96 1024.0
20260830133325 26 225 0.0 3.2 0.00 0.00 0.00 92 1024.0
20260830132712 25 225 1.6 3.2 0.00 0.00 0.00 95 1024.0
20260830132145 25 203 3.2 4.8 0.00 0.00 0.00 95 1024.0
20260830131541 25 180 3.2 3.2 0.00 0.00 0.00 96 1024.0
20260830130915 24 225 0.0 0.0 0.00 0.00 0.00 98 1024.0
20260830130337 23 225 0.0 0.0 0.00 0.00 0.00 99 1024.0
20260830125109 23 45 0.0 0.0 0.00 0.00 0.00 99 1024.0
20260830124549 22 203 0.0 0.0 0.00 0.00 0.00 99 1024.0
20260830123916 22 68 0.0 0.0 0.00 0.00 0.00 99 1024.0
20260830123314 22 45 0.0 0.0 0.00 0.00 0.00 99 1024.0
20260830122744 21 90 0.0 0.0 0.00 0.00 0.00 99 1024.0
20260830122117 21 203 0.0 0.0 0.00 0.00 0.00 99 1024.0
20260830121519 21 203 0.0 0.0 0.00 0.00 0.00 99 1024.0
20260830120951 20 270 0.0 0.0 0.00 0.00 0.00 99 1024.0
20260830115705 20 270 0.0 0.0 0.00 0.00 0.00 99 1023.7
20260830115120 20 270 0.0 0.0 0.00 0.00 0.00 99 1023.7
20260830113919 19 248 0.0 0.0 0.00 0.00 0.00 99 1024.0
20260830113319 19 270 0.0 0.0 0.00 0.00 0.00 99 1023.7
20260830112724 19 293 0.0 0.0 0.00 0.00 0.00 99 1023.7
20260830112116 19 270 0.0 0.0 0.00 0.00 0.00 99 1023.7
20260830111515 19 248 0.0 0.0 0.00 0.00 0.00 99 1023.7
20260830110347 19 225 0.0 0.0 0.00 0.00 0.00 99 1023.7
20260830105716 19 225 0.0 0.0 0.00 0.00 0.00 99 1023.7
20260830105120 19 225 0.0 0.0 0.00 0.00 0.00 99 1023.7
20260830104543 19 248 0.0 0.0 0.00 0.00 0.00 99 1023.7
20260830103927 19 225 0.0 0.0 0.00 0.00 0.00 99 1023.7
20260830103349 19 225 0.0 0.0 0.00 0.00 0.00 99 1023.3
20260830102111 19 248 0.0 0.0 0.00 0.00 0.00 99 1023.3
20260830100930 20 180 0.0 0.0 0.00 0.00 0.00 99 1023.3
20260830100313 20 203 0.0 0.0 0.00 0.00 0.00 99 1023.3
20260830095743 20 225 0.0 0.0 0.00 0.00 0.00 99 1023.3
20260830095116 20 203 0.0 0.0 0.00 0.00 0.00 99 1023.3
20260830094559 20 203 0.0 0.0 0.00 0.00 0.00 99 1023.7
20260830093932 20 180 0.0 0.0 0.00 0.00 0.00 99 1023.3
20260830093318 20 203 0.0 0.0 0.00 0.00 0.00 99 1023.3
20260830092729 20 225 0.0 0.0 0.00 0.00 0.00 99 1023.3
20260830092127 20 225 0.0 0.0 0.00 0.00 0.00 99 1023.3
20260830091515 20 225 0.0 0.0 0.00 0.00 0.00 99 1023.3
20260830090949 20 203 0.0 0.0 0.00 0.00 0.00 99 1023.3
20260830090349 20 203 0.0 0.0 0.00 0.00 0.00 99 1023.0
20260830085718 20 225 0.0 0.0 0.00 0.00 0.00 99 1023.3
20260830085123 20 203 0.0 0.0 0.00 0.00 0.00 99 1023.3
20260830083944 20 270 0.0 0.0 0.00 0.00 0.00 99 1023.0
20260830082740 20 225 0.0 0.0 0.00 0.00 0.00 99 1023.0
20260830082122 20 225 0.0 0.0 0.00 0.00 0.00 99 1023.0
20260830080947 20 203 0.0 0.0 0.00 0.00 0.00 99 1023.3
20260830080339 20 203 0.0 0.0 0.00 0.00 0.00 99 1023.0
20260830075120 20 203 0.0 0.0 0.00 0.00 0.00 99 1023.3
20260830074526 20 225 0.0 0.0 0.00 0.00 0.00 99 1023.3
20260830073940 20 248 0.0 0.0 0.00 0.00 0.00 99 1023.0
20260830072135 20 203 0.0 0.0 0.00 0.00 0.00 99 1023.0
20260830071541 20 203 0.0 0.0 0.00 0.00 0.00 99 1023.0
20260830070934 20 203 0.0 0.0 0.00 0.00 0.00 99 1023.0
20260830070347 21 203 0.0 0.0 0.00 0.00 0.00 99 1023.0
20260830064531 21 23 0.0 0.0 0.00 0.00 0.00 99 1023.3
20260830062739 21 203 0.0 0.0 0.00 0.00 0.00 99 1023.3
20260830061513 21 0 0.0 0.0 0.00 0.00 0.00 99 1023.3
20260830060930 21 203 0.0 0.0 0.00 0.00 0.00 99 1023.3
20260830055719 21 0 0.0 0.0 0.00 0.00 0.00 99 1023.3
20260830055121 21 338 0.0 0.0 0.00 0.00 0.00 99 1023.3
20260830054533 21 338 0.0 0.0 0.00 0.00 0.00 99 1023.7
20260830053943 21 338 0.0 0.0 0.00 0.00 0.00 99 1023.7
20260830053345 21 270 0.0 0.0 0.00 0.00 0.00 99 1023.3
20260830052735 21 225 0.0 0.0 0.00 0.00 0.00 99 1023.3
20260830052135 21 225 0.0 0.0 0.00 0.00 0.00 99 1023.3
20260830051541 21 225 0.0 0.0 0.00 0.00 0.00 99 1023.3
20260830050909 21 293 0.0 0.0 0.00 0.00 0.00 99 1023.3
20260830050348 21 225 0.0 0.0 0.00 0.00 0.00 99 1023.3
20260830045724 21 225 0.0 0.0 0.00 0.00 0.00 99 1023.3